Weather History for Three Rivers, MI

Change the Weather History Date:

Thursday, January 28, 2010

  Actual Average Record
Temperature  
Mean Temperature 19 °F -  
Max Temperature 26 °F 30 °F 51 °F (1990)
Min Temperature 12 °F 15 °F -15 °F (2014)
Degree Days  
Heating Degree Days 46    
Moisture  
Dew Point 11 °F    
Average Humidity 77    
Maximum Humidity 86    
Minimum Humidity 62    
Precipitation  
Precipitation 0.00 in - - ()
Sea Level Pressure  
Sea Level Pressure 30.23 in    
Wind  
Wind Speed 13 mph (WNW)    
Max Wind Speed 25 mph    
Max Gust Speed 30 mph    
Visibility 6 miles    
Events Snow    
Averages and records for this station are not official NWS values.
T = Trace of Precipitation, MM = Missing Value Source: NWS Daily Summary

Daily Weather History Graph

Daily Weather History Graph

Search for Another Location

Airport:

Trip Planner

Search our weather history database for the weather conditions in past years. The results will help you decide how hot, cold, wet, or windy it might be!

Date:

Astronomy

Jan. 28, 2010 Rise Set
Actual Time 7:58 AM EST 5:52 PM EST
Civil Twilight 7:29 AM EST 6:22 PM EST
Nautical Twilight 6:55 AM EST 6:55 PM EST
Astronomical Twilight 6:22 AM EST 7:28 PM EST
Moon 4:09 PM EST (1/28) 6:41 AM EST (1/28)
Length of Visible Light 10h 53m
Length of Day
9h 53m
Waxing Gibbous, 96% of the Moon is Illuminated
Jan 28
Waxing Gibbous
Jan 30
Full
Feb 5
Last Quarter
Feb 13
New
Feb 21
First Quarter

Hourly Weather History & Observations

Time (EST) Temp. Windchill Dew Point Humidity Pressure Visibility Wind Dir Wind Speed Gust Speed Precip Events Conditions
12:16 AM 24.8 °F 14.6 °F 21.2 °F 86% 30.04 in 10.0 mi WSW 10.4 mph 19.6 mph N/A   Overcast
12:36 AM 26.6 °F 16.2 °F 21.2 °F 80% 30.04 in 7.0 mi WSW 11.5 mph 23.0 mph N/A Snow Light Snow
12:55 AM 24.8 °F 14.6 °F 21.2 °F 86% 30.04 in 5.0 mi WSW 10.4 mph 18.4 mph N/A Snow Light Snow
1:16 AM 24.8 °F 14.0 °F 21.2 °F 86% 30.03 in 4.0 mi WSW 11.5 mph 16.1 mph N/A Snow Light Snow
1:36 AM 24.8 °F 12.4 °F 19.4 °F 80% 30.03 in 10.0 mi West 15.0 mph - N/A Snow Light Snow
1:55 AM 23.0 °F 12.4 °F 17.6 °F 80% 30.03 in 7.0 mi West 10.4 mph 26.5 mph N/A Snow Light Snow
2:16 AM 23.0 °F 12.4 °F 15.8 °F 74% 30.03 in 7.0 mi WSW 10.4 mph 24.2 mph N/A Snow Light Snow
2:36 AM 23.0 °F 10.1 °F 15.8 °F 74% 30.04 in 10.0 mi West 15.0 mph 20.7 mph N/A Snow Light Snow
2:55 AM 23.0 °F 8.7 °F 14.0 °F 68% 30.04 in 7.0 mi West 18.4 mph 27.6 mph N/A Snow Light Snow
3:16 AM 23.0 °F 8.0 °F 15.8 °F 74% 30.04 in 7.0 mi West 20.7 mph 27.6 mph N/A Snow Light Snow
3:36 AM 21.2 °F 4.2 °F 14.0 °F 74% 30.04 in 7.0 mi West 25.3 mph - N/A Snow Light Snow
3:55 AM 21.2 °F 4.5 °F 14.0 °F 74% 30.05 in 7.0 mi West 24.2 mph 28.8 mph N/A Snow Light Snow
4:16 AM 19.4 °F 3.6 °F 12.2 °F 74% 30.06 in 7.0 mi West 19.6 mph 28.8 mph N/A   Overcast
4:36 AM 19.4 °F 4.1 °F 12.2 °F 74% 30.07 in 4.0 mi WNW 18.4 mph 27.6 mph N/A Snow Light Snow
4:55 AM 19.4 °F 4.1 °F 12.2 °F 74% 30.07 in 4.0 mi WNW 18.4 mph 29.9 mph N/A Snow Light Snow
5:16 AM 19.4 °F 5.0 °F 12.2 °F 74% 30.07 in 7.0 mi West 16.1 mph 20.7 mph N/A Snow Light Snow
5:37 AM 19.4 °F 5.5 °F 12.2 °F 74% 30.09 in 4.0 mi WNW 15.0 mph 24.2 mph N/A Snow Light Snow
5:55 AM 17.6 °F 2.2 °F 10.4 °F 73% 30.10 in 10.0 mi West 17.3 mph 27.6 mph N/A   Overcast
6:16 AM 17.6 °F 3.2 °F 10.4 °F 73% 30.10 in 10.0 mi West 15.0 mph 23.0 mph N/A   Overcast
6:36 AM 17.6 °F 1.3 °F 10.4 °F 73% 30.11 in 7.0 mi West 19.6 mph 26.5 mph N/A Snow Light Snow
6:55 AM 17.6 °F 4.3 °F 12.2 °F 79% 30.12 in 2.0 mi WNW 12.7 mph 19.6 mph N/A Snow Light Snow
7:16 AM 17.6 °F 2.2 °F 14.0 °F 86% 30.14 in 1.0 mi WNW 17.3 mph 21.9 mph N/A Snow Snow
7:36 AM 17.6 °F 4.3 °F 14.0 °F 86% 30.15 in 1.2 mi WNW 12.7 mph 23.0 mph N/A Snow Snow
7:55 AM 17.6 °F 2.7 °F 12.2 °F 79% 30.18 in 1.0 mi WNW 16.1 mph 21.9 mph N/A Snow Light Snow
8:16 AM 15.8 °F 0.3 °F 12.2 °F 86% 30.20 in 0.5 mi WNW 16.1 mph 19.6 mph N/A Snow Light Snow
8:36 AM 15.8 °F -0.6 °F 12.2 °F 86% 30.21 in 3.0 mi WNW 18.4 mph 23.0 mph N/A Snow Light Snow
8:55 AM 17.6 °F 3.7 °F 10.4 °F 73% 30.22 in 2.5 mi NW 13.8 mph 20.7 mph N/A Snow Light Snow
9:16 AM 15.8 °F -0.2 °F 10.4 °F 79% 30.23 in 4.0 mi WNW 17.3 mph 24.2 mph N/A   Haze
9:36 AM 15.8 °F -0.6 °F 8.6 °F 73% 30.25 in 2.5 mi WNW 18.4 mph 25.3 mph N/A Snow Light Snow
9:55 AM 14.0 °F 1.2 °F 10.4 °F 86% 30.26 in 0.8 mi WNW 10.4 mph 20.7 mph N/A Snow Light Snow
10:16 AM 14.0 °F 2.0 °F 10.4 °F 86% 30.27 in 1.0 mi WNW 9.2 mph - N/A Snow Light Snow
10:36 AM 14.0 °F 0.5 °F 10.4 °F 86% 30.28 in 1.8 mi NW 11.5 mph 20.7 mph N/A Snow Light Snow
10:55 AM 14.0 °F -0.8 °F 8.6 °F 79% 30.28 in 1.8 mi NW 13.8 mph 20.7 mph N/A Snow Light Snow
11:17 AM 14.0 °F -0.2 °F 8.6 °F 79% 30.30 in 4.0 mi NW 12.7 mph 20.7 mph N/A   Haze
11:36 AM 14.0 °F -0.2 °F 8.6 °F 79% 30.30 in 4.0 mi WNW 12.7 mph 19.6 mph N/A   Haze
11:55 AM 15.8 °F 3.4 °F 8.6 °F 73% 30.31 in 2.0 mi NW 10.4 mph 19.6 mph N/A Snow Light Snow
12:16 PM 15.8 °F 0.3 °F 8.6 °F 73% 30.32 in 3.0 mi NW 16.1 mph 23.0 mph N/A Snow Light Snow
12:37 PM 15.8 °F 3.4 °F 8.6 °F 73% 30.32 in 3.0 mi NW 10.4 mph - N/A Snow Light Snow
12:55 PM 14.0 °F -0.8 °F 6.8 °F 73% 30.32 in 4.0 mi WNW 13.8 mph - N/A Snow Light Snow
1:16 PM 15.8 °F 2.1 °F 8.6 °F 73% 30.33 in 1.8 mi WNW 12.7 mph 18.4 mph N/A Snow Light Snow
1:36 PM 14.0 °F -2.0 °F 6.8 °F 73% 30.33 in 3.0 mi WNW 16.1 mph 23.0 mph N/A Snow Light Snow
1:55 PM 14.0 °F -0.2 °F 5.0 °F 67% 30.33 in 10.0 mi WNW 12.7 mph 17.3 mph N/A   Overcast
2:16 PM 14.0 °F -0.2 °F 5.0 °F 67% 30.34 in 10.0 mi WNW 12.7 mph 18.4 mph N/A   Overcast
2:36 PM 14.0 °F -0.8 °F 5.0 °F 67% 30.34 in 10.0 mi WNW 13.8 mph 17.3 mph N/A   Mostly Cloudy
2:55 PM 15.8 °F 2.1 °F 6.8 °F 68% 30.35 in 4.0 mi WNW 12.7 mph - N/A Snow Light Snow
3:16 PM 15.8 °F 2.7 °F 6.8 °F 68% 30.35 in 2.5 mi WNW 11.5 mph 19.6 mph N/A Snow Light Snow
3:36 PM 14.0 °F -1.4 °F 5.0 °F 67% 30.35 in 10.0 mi WNW 15.0 mph 19.6 mph N/A   Mostly Cloudy
3:55 PM 14.0 °F -1.4 °F 5.0 °F 67% 30.35 in 10.0 mi WNW 15.0 mph - N/A   Scattered Clouds
4:16 PM 15.8 °F 0.9 °F 5.0 °F 62% 30.36 in 7.0 mi WNW 15.0 mph 19.6 mph N/A   Scattered Clouds
4:55 PM 14.0 °F -0.2 °F 6.8 °F 73% 30.38 in 7.0 mi WNW 12.7 mph - N/A Snow Light Snow
5:16 PM 14.0 °F 1.2 °F 5.0 °F 67% 30.39 in 10.0 mi WNW 10.4 mph - N/A   Mostly Cloudy
5:55 PM 14.0 °F 2.9 °F 8.6 °F 79% 30.40 in 10.0 mi WNW 8.1 mph - N/A   Overcast
6:16 PM 12.2 °F 1.7 °F 6.8 °F 79% 30.41 in 10.0 mi WNW 6.9 mph - N/A   Overcast
6:55 PM 12.2 °F 2.9 °F 8.6 °F 85% 30.42 in 7.0 mi WNW 5.8 mph - N/A Snow Light Snow
7:16 PM 12.2 °F 2.9 °F 8.6 °F 85% 30.42 in 5.0 mi West 5.8 mph - N/A Snow Light Snow
7:55 PM 12.2 °F 4.3 °F 8.6 °F 85% 30.44 in 2.5 mi WNW 4.6 mph - N/A Snow Light Snow
8:16 PM 12.2 °F 6.1 °F 8.6 °F 85% 30.44 in 5.0 mi West 3.5 mph - N/A Snow Light Snow
8:36 PM 12.2 °F 6.1 °F 8.6 °F 85% 30.44 in 5.0 mi WNW 3.5 mph - N/A Snow Light Snow
8:55 PM 12.2 °F 4.3 °F 8.6 °F 85% 30.44 in 10.0 mi West 4.6 mph - N/A Snow Light Snow
9:16 PM 12.2 °F 4.3 °F 8.6 °F 85% 30.45 in 7.0 mi West 4.6 mph - N/A Snow Light Snow
9:36 PM 12.2 °F 6.1 °F 8.6 °F 85% 30.45 in 7.0 mi West 3.5 mph - N/A Snow Light Snow
9:55 PM 12.2 °F 6.1 °F 8.6 °F 85% 30.45 in 7.0 mi NW 3.5 mph - N/A Snow Light Snow
10:16 PM 14.0 °F 8.2 °F 8.6 °F 79% 30.45 in 10.0 mi WNW 3.5 mph - N/A   Overcast
10:36 PM 12.2 °F 6.1 °F 8.6 °F 85% 30.45 in 10.0 mi WNW 3.5 mph - N/A   Overcast
10:55 PM 12.2 °F 6.1 °F 8.6 °F 85% 30.44 in 7.0 mi West 3.5 mph - N/A Snow Light Snow
11:16 PM 14.0 °F - 8.6 °F 79% 30.45 in 4.0 mi Calm Calm - N/A Snow Light Snow
11:36 PM 12.2 °F - 8.6 °F 85% 30.45 in 2.5 mi Calm Calm - N/A Snow Light Snow